Flag for U.S.A. Weather past 2 weeks in Scottsdale, Arizona, U.S.A.

Now
89 °F

Sunny.


Feels Like: 85 °F
Forecast: 63 / 83 °F
Wind: 8 mph from West

Location: Scottsdale Airport

Current Time: Mar 31, 2015 at 7:07:51 PM

Latest Report: Mar 31, 2015 at 5:53 PM


Visibility: 10 mi

Pressure: 29.76 "Hg

Humidity: 12%

Dew point: 31 °F

Location of ScottsdaleLocation

Historic Weather in Scottsdale — Graph

°F

Scottsdale temperature yesterday

Maximum temperature yesterday: 92 °F (at 2:53 PM)
Minimum temperature yesterday: 67 °F (at 5:53 AM)
Average temperature yesterday: 80 °F

Past Weeks' High & Low Weather Summary

 TemperatureHumidityPressure
High92 °F (Mar 29, 2:53 PM)94% (Mar 19, 5:01 AM)30.10 "Hg (Mar 19, 5:01 AM)
Low56 °F (Mar 24, 4:53 AM)5% (Mar 29, 3:53 PM)29.76 "Hg (Mar 31, 5:53 PM)
Average73 °F32%29.95 "Hg
* Reported Mar 16 5:53 PM — Mar 31 5:53 PM, Scottsdale, Weather by CustomWeather, © 2015

Note: Actual official high and low records may vary slightly from our data, if they occured in-between our weather recording intervals... More about our weather records

Advertising

Scottsdale weather history for previous 24 hours

 ConditionsComfort  
Time TempWeatherWind HumidityBarometerVisibility
5:53 PM
Tue, Mar 31
89 °FSunny.8 mph12%29.76 "Hg10 mi
4:53 PM90 °FSunny.9 mph12%29.77 "Hg10 mi
3:53 PM90 °FSunny.8 mph12%29.78 "Hg10 mi
2:53 PM90 °FSunny.10 mph12%29.81 "Hg10 mi
1:53 PM88 °FSunny.No wind12%29.85 "Hg10 mi
12:53 PM88 °FSunny.8 mph13%29.88 "Hg10 mi
11:53 AM86 °FSunny.6 mph14%29.91 "Hg10 mi
10:53 AM82 °FSunny.5 mph16%29.92 "Hg10 mi
9:53 AM80 °FSunny.6 mph18%29.93 "Hg10 mi
8:53 AM75 °FSunny.No wind26%29.93 "Hg10 mi
7:53 AM67 °FSunny.No wind39%29.91 "Hg10 mi
6:53 AM65 °FSunny.No wind44%29.90 "Hg10 mi
5:53 AM63 °FClear.No wind48%29.88 "Hg10 mi
4:53 AM66 °FClear.No wind42%29.86 "Hg10 mi
3:53 AM66 °FClear.No wind39%29.86 "Hg10 mi
2:53 AM67 °FClear.No wind36%29.86 "Hg10 mi
1:53 AM69 °FClear.No wind31%29.87 "Hg10 mi
12:53 AM69 °FClear.No wind35%29.87 "Hg10 mi
11:53 PM
Mon, Mar 30
75 °FClear.3 mph22%29.87 "Hg10 mi
10:53 PM77 °FClear.3 mph21%29.88 "Hg10 mi
9:53 PM79 °FClear.No wind19%29.88 "Hg10 mi
8:53 PM80 °FClear.5 mph18%29.87 "Hg10 mi
7:53 PM84 °FClear.No wind14%29.86 "Hg10 mi
Weather by CustomWeather, © 2015

See weather overviewHow to use our weather pages